Location: Hysolar-Haus
(48.7436°N, 9.0965°E)
Time: 22:48:15
(UTC+00:00)

S-56A Canister/Altair - All Passes

Search period start: 13 November 2019 00:00
Search period end: 23 November 2019 00:00
Orbit: 634 x 2498 km, 38.9° (Epoch: 13 November)

Date Brightness Start Highest point End Pass type
(mag) Time Alt. Az. Time Alt. Az. Time Alt. Az.
13 Nov - 16:44:09 10° S 16:47:04 12° SSE 16:49:38 10° SE visible
13 Nov - 18:45:02 10° SW 18:50:19 25° S 18:54:29 10° ESE visible
13 Nov - 20:48:49 10° WSW 20:53:19 27° S 20:57:09 10° SE visible
13 Nov - 22:53:39 10° SW 22:55:57 14° SSW 22:58:12 10° S night (unlit)
14 Nov - 16:11:36 10° S 16:14:22 12° SSE 16:16:52 10° SE visible
14 Nov - 18:12:01 10° SW 18:17:44 25° SSE 18:22:08 10° ESE visible
14 Nov - 20:15:52 10° WSW 20:20:50 28° S 20:24:51 10° SE visible
14 Nov - 22:20:39 10° WSW 22:23:29 16° SSW 22:26:11 10° SSE night (unlit)
15 Nov - 15:39:08 10° SSE 15:41:39 11° SSE 15:43:57 10° SE daylight
15 Nov - 17:38:58 10° SW 17:45:07 25° SSE 17:49:46 10° ESE visible
15 Nov - 19:42:50 10° WSW 19:48:19 30° S 19:52:35 10° ESE visible
15 Nov - 21:47:38 10° WSW 21:51:03 18° SSW 21:54:07 10° SSE night (unlit)
16 Nov - 15:06:51 10° SSE 15:08:54 11° SSE 15:10:47 10° SE daylight
16 Nov - 17:05:52 10° SSW 17:12:26 25° SSE 17:17:23 10° ESE visible
16 Nov - 19:09:45 10° WSW 19:15:46 32° S 19:20:18 10° ESE visible
16 Nov - 21:14:35 10° WSW 21:18:35 21° SSW 21:22:01 10° SSE visible
17 Nov - 14:35:11 10° SSE 14:36:07 10° SE 14:37:00 10° SE daylight
17 Nov - 16:32:43 10° SSW 16:39:44 25° SSE 16:44:58 10° ESE visible
17 Nov - 18:36:34 10° WSW 18:43:11 33° S 18:48:01 10° ESE visible
17 Nov - 20:41:30 10° WSW 20:46:07 24° SSW 20:49:54 10° SE visible
18 Nov - 15:59:34 10° SSW 16:06:59 24° SSE 16:12:32 10° ESE daylight
18 Nov - 18:03:20 10° WSW 18:10:33 35° S 18:15:43 10° ESE visible
18 Nov - 20:08:21 10° WSW 20:13:38 27° SSW 20:17:46 10° SE visible
19 Nov - 15:26:25 10° SSW 15:34:10 24° SSE 15:40:02 10° ESE daylight
19 Nov - 17:30:01 10° SW 17:37:53 36° S 17:43:25 10° ESE visible
19 Nov - 19:35:09 10° WSW 19:41:07 30° SSW 19:45:36 10° SE visible
19 Nov - 21:41:56 10° SW 21:43:29 11° SW 21:44:57 10° SSW night (unlit)
20 Nov - 14:53:16 10° SSW 15:01:19 23° SSE 15:07:28 10° ESE daylight
20 Nov - 16:56:40 10° SW 17:05:10 36° S 17:11:05 10° ESE visible
20 Nov - 19:01:52 10° WSW 19:08:33 33° SSW 19:13:25 10° SE visible
20 Nov - 21:08:06 10° WSW 21:11:03 14° SW 21:13:39 10° S visible
21 Nov - 14:20:09 10° SSW 14:28:25 23° SSE 14:34:50 10° ESE daylight
21 Nov - 16:23:16 10° SW 16:32:23 37° S 16:38:43 10° ESE visible
21 Nov - 18:28:31 10° WSW 18:35:56 36° S 18:41:12 10° SE visible
21 Nov - 20:34:34 10° WSW 20:38:36 17° SSW 20:41:58 10° S visible
22 Nov - 13:47:05 10° SSW 13:55:28 22° SSE 14:02:07 10° ESE daylight
22 Nov - 15:49:50 10° SW 15:59:32 37° SSE 16:06:18 10° ESE daylight
22 Nov - 17:55:06 10° WSW 18:03:17 39° S 18:08:57 10° ESE visible
22 Nov - 20:01:07 10° WSW 20:06:07 21° SSW 20:10:06 10° SSE visible
